"Pseudo-MPEC" for P11FQyj

Created 2023 Jun 2 18:22:06 UT using Find_Orb

Click here for an explanation of pseudo-MPECs

 
 Astrometry: 
     P11FQyj* C2023 05 28mhK.7cAstrometryp45\%MCl:Xehu3ODh[redacted;aclickhoAF51
     P11FQyj  C2023 05 28meM5j5MS,aCBfJ@YeRx-M1\Kq3h@TI4?v#c2Pr7_:X04kOfhereiF51
     P11FQyj  C2023 05 28\mT?TiRw/`wYP!BQ^4Cx)!b=F7*5swikxZHui.OAA%BcBMVp9KbWF51
     P11FQyj  C2023 05 28qSa`L8*qU(+WWtf,o-e7K-?Mi'W;C4fvOMh1forMwexplanationF51

Station data:
(F51) Pan-STARRS 1, Haleakala  (N20.707234 W156.255910)  US/Hawaii.
   Observers J. Bulger, T. Lowe, A. Schultz, M. Willman. Measurers K.
   Chambers, S. Chastel, T. de Boer, L. Denneau, J. Fairlamb, H. Flewelling,
   M. Huber, C.-C. Lin, E. Magnier, Y. Ramanjooloo, R. Wainscoat, R. Weryk.
   1.8-m Ritchey-Chrétien + CCD.

Orbital elements:  P11FQyj
   Perihelion 2023 May 19.55756 +/- 37.3 TT = 13:22:52 (JD 2460084.05756)
Epoch 2023 May 29.0 TT = JDT 2460093.5   Earth MOID: 0.2879   Ma: 0.0909
M   2.17465685 +/- 48               (J2000 ecliptic)             AutoNEOCP
n   0.23030656 +/- 0.443            Peri.  347.99513 +/- 110
a   2.63591766 +/- 3.38             Node   271.75047 +/- 19
e   0.5058082 +/- 0.256             Incl.    4.91475 +/- 60
P   4.28                   H 20.72  G  0.15   U 12.2  SR
q 1.30264872 +/- 0.494    Q 3.96918659 +/- 24
From 4 observations 2023 May 28 (25.0 min); mean residual 0".05
Residuals in arcseconds: 
230528 F51  .02-  .07+    230528 F51  .04+  .03-    
230528 F51  .01+  .09-    230528 F51  .04-  .05+    

Ephemerides (geocentric):
Date (UTC) HH   RA             Dec           delta  r     elong  mag " sig PA
---- --------  ------------   ------------  ------ ------ -----  --- --------
2023 06 02 18  21 09 43.901   -16 28 27.02  .49252 1.3115 116.7 21.5  55d 167
2023 06 02 19  21 09 49.015   -16 27 35.85  .49245 1.3115 116.7 21.5  55d 167
2023 06 02 20  21 09 54.124   -16 26 44.68  .49238 1.3116 116.7 21.5  55d 167
2023 06 02 21  21 09 59.226   -16 25 53.52  .49231 1.3116 116.8 21.5  55d 167
2023 06 02 22  21 10 04.323   -16 25 02.36  .49224 1.3117 116.8 21.5  55d 167
2023 06 02 23  21 10 09.414   -16 24 11.21  .49217 1.3117 116.8 21.5  56d 167
2023 06 03 00  21 10 14.499   -16 23 20.07  .49211 1.3118 116.8 21.5  56d 167
2023 06 03 01  21 10 19.577   -16 22 28.94  .49204 1.3118 116.8 21.5  56d 167
2023 06 03 02  21 10 24.651   -16 21 37.81  .49197 1.3119 116.8 21.5  56d 167
2023 06 03 03  21 10 29.718   -16 20 46.69  .49190 1.3119 116.9 21.5  56d 167
2023 06 03 04  21 10 34.779   -16 19 55.58  .49183 1.3120 116.9 21.5  56d 167
2023 06 03 05  21 10 39.834   -16 19 04.47  .49176 1.3121 116.9 21.5  56d 167
2023 06 03 06  21 10 44.884   -16 18 13.37  .49169 1.3121 116.9 21.5  57d 167
2023 06 03 07  21 10 49.927   -16 17 22.28  .49162 1.3122 116.9 21.5  57d 167
2023 06 03 08  21 10 54.965   -16 16 31.20  .49156 1.3122 116.9 21.5  57d 167
2023 06 03 09  21 10 59.996   -16 15 40.12  .49149 1.3123 117.0 21.5  57d 167
2023 06 03 10  21 11 05.022   -16 14 49.06  .49142 1.3123 117.0 21.5  58d 166
2023 06 03 11  21 11 10.042   -16 13 58.00  .49135 1.3124 117.0 21.5  58d 166
2023 06 03 12  21 11 15.055   -16 13 06.94  .49128 1.3124 117.0 21.5  58d 166
2023 06 03 13  21 11 20.063   -16 12 15.90  .49121 1.3125 117.0 21.5  58d 166
2023 06 03 14  21 11 25.065   -16 11 24.86  .49115 1.3125 117.0 21.5  59d 166
2023 06 03 15  21 11 30.061   -16 10 33.83  .49108 1.3126 117.1 21.5  59d 167
2023 06 03 16  21 11 35.052   -16 09 42.81  .49101 1.3127 117.1 21.5  59d 167
2023 06 03 17  21 11 40.036   -16 08 51.80  .49094 1.3127 117.1 21.5  59d 167
2023 06 03 18  21 11 45.014   -16 08 00.79  .49088 1.3128 117.1 21.5  59d 167
2023 06 03 19  21 11 49.986   -16 07 09.80  .49081 1.3128 117.1 21.5  59d 167
2023 06 03 20  21 11 54.953   -16 06 18.81  .49074 1.3129 117.1 21.5  59d 167
2023 06 03 21  21 11 59.913   -16 05 27.83  .49067 1.3129 117.2 21.5  60d 167
2023 06 03 22  21 12 04.867   -16 04 36.85  .49061 1.3130 117.2 21.5  60d 167
2023 06 03 23  21 12 09.816   -16 03 45.89  .49054 1.3130 117.2 21.5  60d 167
2023 06 04 00  21 12 14.759   -16 02 54.93  .49047 1.3131 117.2 21.5  60d 167
2023 06 04 01  21 12 19.695   -16 02 03.99  .49041 1.3131 117.2 21.5  60d 167
2023 06 04 02  21 12 24.626   -16 01 13.05  .49034 1.3132 117.2 21.5  60d 167
2023 06 04 03  21 12 29.551   -16 00 22.12  .49027 1.3133 117.3 21.5  60d 167
2023 06 04 04  21 12 34.469   -15 59 31.20  .49021 1.3133 117.3 21.5  60d 167
2023 06 04 05  21 12 39.382   -15 58 40.29  .49014 1.3134 117.3 21.5  60d 167
2023 06 04 06  21 12 44.289   -15 57 49.38  .49007 1.3134 117.3 21.5  60d 167
2023 06 04 07  21 12 49.190   -15 56 58.49  .49001 1.3135 117.3 21.5  60d 167
2023 06 04 08  21 12 54.085   -15 56 07.60  .48994 1.3135 117.3 21.5  60d 167
2023 06 04 09  21 12 58.974   -15 55 16.73  .48988 1.3136 117.4 21.5  60d 167
2023 06 04 10  21 13 03.857   -15 54 25.86  .48981 1.3137 117.4 21.5  60d 167
2023 06 04 11  21 13 08.734   -15 53 35.00  .48974 1.3137 117.4 21.5  60d 167
2023 06 04 12  21 13 13.605   -15 52 44.15  .48968 1.3138 117.4 21.5  60d 167
2023 06 04 13  21 13 18.470   -15 51 53.31  .48961 1.3138 117.4 21.5  60d 167
2023 06 04 14  21 13 23.329   -15 51 02.48  .48955 1.3139 117.4 21.5  61d 167
2023 06 04 15  21 13 28.182   -15 50 11.66  .48948 1.3139 117.5 21.5  61d 167
2023 06 04 16  21 13 33.029   -15 49 20.85  .48942 1.3140 117.5 21.5  61d 167
2023 06 04 17  21 13 37.871   -15 48 30.04  .48935 1.3141 117.5 21.5  61d 167